This is the latest recevied weather packets stored in our database for station/object SQ9RHX-13. If no packets are shown the sender has not sent any weather packets the latest 10 day(s).
| Time | Temp. | Humidity | Pressure | Rain* | Wind** | Luminosity | Snow |
|---|---|---|---|---|---|---|---|
| 1778030103 | 10° C | 90% | 1008.8 hPa | 0 mm | - | 0 W/m² | - |
| 1778029805 | 10° C | 90% | 1008.8 hPa | 0 mm | - | 0 W/m² | - |
| 1778029505 | 10° C | 90% | 1008.8 hPa | 0 mm | - | 0 W/m² | - |
| 1778029203 | 10° C | 90% | 1008.8 hPa | 0 mm | - | 0 W/m² | - |
| 1778028904 | 10° C | 89% | 1008.8 hPa | 0 mm | - | 0 W/m² | - |
| 1778028604 | 10.56° C | 89% | 1008.8 hPa | 0 mm | - | 0 W/m² | - |
| 1778028302 | 10.56° C | 89% | 1008.9 hPa | 0 mm | - | 0 W/m² | - |
| 1778028004 | 10.56° C | 89% | 1008.9 hPa | 0 mm | - | 0 W/m² | - |
| 1778027702 | 10.56° C | 88% | 1008.8 hPa | 0 mm | - | 0 W/m² | - |
| 1778027402 | 10.56° C | 88% | 1008.7 hPa | 0 mm | - | 0 W/m² | - |
| 1778027103 | 11.11° C | 88% | 1008.6 hPa | 0 mm | - | 0 W/m² | - |
| 1778026803 | 10.56° C | 89% | 1008.7 hPa | 0 mm | - | 0 W/m² | - |
| 1778026504 | 10.56° C | 89% | 1008.8 hPa | 0 mm | - | 0 W/m² | - |
| 1778026204 | 10.56° C | 88% | 1008.8 hPa | 0 mm | - | 0 W/m² | - |
| 1778025903 | 11.11° C | 88% | 1008.8 hPa | 0 mm | - | 0 W/m² | - |
| 1778025603 | 11.11° C | 87% | 1008.8 hPa | 0 mm | - | 0 W/m² | - |
| 1778025303 | 11.11° C | 86% | 1008.7 hPa | 0 mm | - | 0 W/m² | - |
| 1778025003 | 11.67° C | 86% | 1008.7 hPa | 0 mm | - | 0 W/m² | - |
| 1778024705 | 11.67° C | 86% | 1008.6 hPa | 0 mm | - | 0 W/m² | - |
| 1778024403 | 11.67° C | 86% | 1008.8 hPa | 0 mm | - | 0 W/m² | - |
| 1778024103 | 11.67° C | 85% | 1009 hPa | 0 mm | - | 0 W/m² | - |
| 1778023803 | 11.67° C | 84% | 1008.6 hPa | 0 mm | - | 0 W/m² | - |
| 1778023503 | 12.22° C | 83% | 1008.9 hPa | 0 mm | - | 0 W/m² | - |
| 1778023203 | 12.22° C | 82% | 1008.8 hPa | 0 mm | - | 0 W/m² | - |
| 1778022904 | 12.78° C | 81% | 1008.8 hPa | 0 mm | - | 0 W/m² | - |
* Rain latest hour (hover to see other rain measurements)
** Current wind speed in m/s (hover to see current wind gust speed)